Regional Weather Roundup
Issued by NWS

Home | Current Version | Previous Version | Graphics & Text | Print | Product List | Glossary On
Versions: 1 2 3 4 5 6 7 8 9 10 11 12 13 14 15 16 17 18 19 20 21 22 23 24 25 26 27 28 29 30 31 32 33 34 35 36 37 38 39 40 41 42 43 44 45 46 47 48 49 50
831
ASUS43 KMKX 221911
RWRWI

WISCONSIN REGIONAL WEATHER ROUNDUP
NATIONAL WEATHER SERVICE MILWAUKEE/SULLIVAN WI
200 PM CDT SUN OCT 22 2017

NOTE: "FAIR" INDICATES FEW OR NO CLOUDS BELOW 12,000 FEET WITH NO
SIGNIFICANT WEATHER AND/OR OBSTRUCTIONS TO VISIBILITY.

WIZ001-002-006>008-014>016-023>028-222000-
NORTHWEST WISCONSIN

CITY           SKY/WX    TMP DP  RH WIND       PRES   REMARKS
SUPERIOR ARPT  SUNNY     59  36  41 W16       29.87F
ASHLAND        CLOUDY    54  39  57 SW12      29.89F
HAYWARD        CLOUDY    56  36  47 SW9G16    29.92F
SIREN          SUNNY     59  33  37 W14G23    29.93F
CUMBERLAND     CLOUDY    55  34  44 W14G21    29.95F
RICE LAKE      CLOUDY    57  36  45 W8G16     29.96F
CHETEK         CLOUDY    56  38  51 W8        29.96S
LADYSMITH      CLOUDY    52  41  67 W5        29.97S
EAU CLAIRE     CLOUDY    55  41  59 W9        29.97F
MENOMONIE      CLOUDY    57  39  51 W8        29.97F
NEW RICHMOND   SUNNY     60  33  35 W13G20    29.97S
OSCEOLA        SUNNY     62  35  37 W15G21    29.99S
$$

WIZ003>005-009-010-017-018-222000-
NORTH CENTRAL WISCONSIN

CITY           SKY/WX    TMP DP  RH WIND       PRES   REMARKS
MANITOWISH WTR CLOUDY    47  44  87 SW6       29.92F
ARBOR VITAE    CLOUDY    52  47  83 W5        29.93S
WOODRUFF       CLOUDY    52  47  83 W5        29.93S
RHINELANDER    CLOUDY    49  45  86 W7        29.94F
EAGLE RIVER    NOT AVBL
LAND O LAKES   CLOUDY    49  43  80 W6        29.93F
PHILLIPS       MOSUNNY   48  42  80 SW7       29.93F
TOMAHAWK       CLOUDY    49  42  76 W6        29.94F
MEDFORD        CLOUDY    49  42  78 W7        29.95S
MERRILL        CLOUDY    50  46  85 W3        29.95F
$$

WIZ029-030-035-036-043>047-222000-
CENTRAL WISCONSIN

CITY           SKY/WX    TMP DP  RH WIND       PRES   REMARKS
WAUSAU         CLOUDY    50  45  83 W7        29.94F
MOSINEE        CLOUDY    48  46  93 W6        29.97F
MARSHFIELD     CLOUDY    50  43  77 NW7       29.96F
STEVENS POINT  LGT RAIN  48  47  97 W3        29.98S
WAUPACA        CLOUDY    54  49  85 W5        29.98R
WAUTOMA        LGT RAIN N/A N/A N/A W8        29.99S
WISC RAPIDS    CLOUDY    50  48  93 W5        29.99F
CAMP DOUGLAS   NOT AVBL
$$

WIZ011>013-019>022-031-037>040-048>050-222000-
NORTHEAST WISCONSIN

CITY           SKY/WX    TMP DP  RH WIND       PRES   REMARKS
ANTIGO         CLOUDY    47  46  94 W10       29.95S
SHAWANO        CLOUDY    53  48  84 CALM      29.94F
OCONTO         CLOUDY    51  49  93 SW3       29.97R
STURGEON BAY   LGT RAIN  52  49  89 W12       29.96R
GREEN BAY      LGT RAIN  52  52 100 CALM      29.97R
MANITOWOC      LGT RAIN  52  50  93 NW9       29.97R FOG
APPLETON       CLOUDY    52  46  82 NW5       29.95S
CLINTONVILLE   RAIN      52  46  82 W3        29.96S
OSHKOSH        CLOUDY    52  48  86 NW6       29.97F
$$

WIZ032>034-041-042-053>061-222000-
SOUTHWEST WISCONSIN

CITY           SKY/WX    TMP DP  RH WIND       PRES   REMARKS
LA CROSSE      CLOUDY    56  43  61 NW5       30.00S
SPARTA         CLOUDY    52  45  77 W5        30.01R
VIROQUA        CLOUDY    51  47  87 W6        30.02R
BOSCOBEL       CLOUDY    54  46  74 W3        30.03R
PRAIRIE DU CHI CLOUDY    55  44  68 W5        30.03S
PLATTEVILLE    CLOUDY    52  48  86 N8        30.02S
$$

WIZ056-057-062-063-064-067-068-222000-
SOUTH CENTRAL WISCONSIN

CITY           SKY/WX    TMP DP  RH WIND       PRES   REMARKS
REEDSBURG      DRIZZLE   50  47  89 W7        30.01R
BARABOO/DELLS  DRIZZLE   50  46  88 W5        30.00R
LONE ROCK      CLOUDY    53  47  79 NW5       30.02R
MINERAL POINT  CLOUDY    52  50  93 N3        30.02R
MADISON        CLOUDY    52  48  86 NW5       29.98F
MIDDLETON      CLOUDY    52  48  85 CALM      29.99F
WATERTOWN      LGT RAIN  51  51 100 N5        29.99S
MONROE         CLOUDY    50  46  87 N10       29.98F
JANESVILLE     CLOUDY    52  52 100 N12G17    29.99S
$$

WIZ051-052-058>065-066-070>072-222000-
SOUTHEAST WISCONSIN

CITY           SKY/WX    TMP DP  RH WIND       PRES   REMARKS
MILWAUKEE      LGT RAIN  54  51  90 NW18G31   29.96R
WAUKESHA       CLOUDY    48  46  93 NW12      29.99R
MILWAUKEE/TIMM DRIZZLE   52  46  82 NW13G25   29.98R
RACINE         RAIN      55  54  96 N16G22    29.98R FOG
BURLINGTON     LGT RAIN  50  50 100 N13G24    29.98R
KENOSHA        RAIN      55  53  93 NW16G24   29.95R FOG
FOND DU LAC    CLOUDY    52  47  83 NW7       29.99S
SHEBOYGAN      LGT RAIN  51  50  96 N7        29.97R
WEST BEND      CLOUDY    50  48  93 NW12      29.97S
JUNEAU         DRIZZLE   50  47  91 CALM      30.01R
$$

LSZ147-162-222000-
LAKE SUPERIOR

STATION/POSITION TIME  TEMP    WIND        PRES    WAVE
                       AIR SEA DIR/SP/G            HT/PER
                 (UTC) (F)     (DEG/KT/KT) (MB)    (FT/S)
W MID LAKE BUOY  1850   52 52              1010.8F   5/ 6
DEVILS ISLAND    1900   52     230/ 23/ 25 1011.4F
SAXON HARBOR     1840   54     210/ 10/ 14 1011.9F
$$

LMZ867-665-643>646-222000-
LAKE MICHIGAN

STATION/POSITION TIME  TEMP    WIND        PRES    WAVE
                       AIR SEA DIR/SP/G            HT/PER
                 (UTC) (F)     (DEG/KT/KT) (MB)    (FT/S)
S GREEN BAY BUOY 1900   53 58  270/ 10/ 12 1014.7
N MID LAKE BUOY  1850   54 58  290/ 23/ 27 1012.8R   7/ 7
NORTHPORT PIER   1840   55     310/ 14/ 19 1012.9R
KEWAUNEE LAKESHO 1842   53     300/  4/  8 1013.2R
SHEBOYGAN LAKESH 1900   51     330/ 14/ 18 1014.7R
PORT WASHINGTON  1830   52     330/ 10/ 17 1015.6R
ATWATER BUOY     1709   56 52  170/ 10/ 12 1013.2R
MILWAUKEE LAKESH 1850   52     320/ 12/ 16   N/A
S MID LAKE BUOY  1750   63 61  160/ 17/ 19 1013.5F   3/ 5
KENOSHA   LAKESH 1900   56     320/ 17/ 24 1013.5
$$

TC  - TEMPERATURE IN CELSIUS
VSB - VISIBILITY IN STATUTE MILES
WCI - WIND CHILL INDEX
HX  - HEAT INDEX





USA.gov is the U.S. government's official web portal to all federal, state and local government web resources and services.